JBU5952 KSAN-KLAX

Flight info

Callsign JBU5952
Flight time 0h 28m
Altitude 10000
Route CWARD2 CWARD AVOLS SXC EXERT/N0285F090
Aircraft A320/M-SDE3FGHIRWY/LB1

Departure

Time 2026-05-06 23:51
Airport San Diego International Airport (KSAN)

Arrival

Time 2026-05-07 00:20
Airport Los Angeles International Airport (KLAX)
Time Latitude Longitude Altitude Speed Heading
2026-05-06 23:36 32.73315 -117.19569 20 ft 0 kts 230°
2026-05-06 23:44 32.73321 -117.19561 21 ft 2 kts 225°
2026-05-06 23:44 32.73332 -117.19547 21 ft 2 kts 225°
2026-05-06 23:44 32.73344 -117.19535 23 ft 2 kts 216°
2026-05-06 23:45 32.73358 -117.19524 27 ft 2 kts 200°
2026-05-06 23:45 32.73374 -117.19520 27 ft 2 kts 168°
2026-05-06 23:45 32.73388 -117.19529 29 ft 2 kts 121°
2026-05-06 23:45 32.73392 -117.19537 25 ft 0 kts 101°
2026-05-06 23:47 32.73391 -117.19533 26 ft 2 kts 101°
2026-05-06 23:47 32.73386 -117.19504 25 ft 5 kts 101°
2026-05-06 23:47 32.73374 -117.19447 24 ft 9 kts 105°
2026-05-06 23:48 32.73350 -117.19359 22 ft 14 kts 109°
2026-05-06 23:48 32.73309 -117.19194 21 ft 29 kts 105°
2026-05-06 23:48 32.73267 -117.19015 23 ft 12 kts 106°
2026-05-06 23:48 32.73242 -117.18912 25 ft 14 kts 106°
2026-05-06 23:49 32.73212 -117.18792 25 ft 16 kts 105°
2026-05-06 23:49 32.73179 -117.18658 19 ft 19 kts 106°
2026-05-06 23:49 32.73139 -117.18492 17 ft 23 kts 106°
2026-05-06 23:49 32.73092 -117.18297 16 ft 26 kts 106°
2026-05-06 23:50 32.73038 -117.18077 14 ft 28 kts 106°
2026-05-06 23:50 32.72953 -117.17678 12 ft 18 kts 83°
2026-05-06 23:50 32.73039 -117.17670 14 ft 16 kts 303°
2026-05-06 23:51 32.73081 -117.17806 13 ft 21 kts 283°
2026-05-06 23:51 32.73188 -117.18256 17 ft 93 kts 285°
2026-05-06 23:51 32.73420 -117.19221 28 ft 147 kts 288°
2026-05-06 23:51 32.73682 -117.20367 753 ft 140 kts 288°
2026-05-06 23:52 32.74130 -117.21399 1392 ft 145 kts 302°
2026-05-06 23:52 32.74724 -117.22472 1745 ft 166 kts 304°
2026-05-06 23:52 32.75416 -117.23693 2107 ft 189 kts 304°
2026-05-06 23:52 32.76197 -117.25082 2473 ft 215 kts 304°
2026-05-06 23:53 32.77072 -117.26652 2989 ft 240 kts 304°
2026-05-06 23:53 32.78033 -117.28385 3651 ft 259 kts 304°
2026-05-06 23:53 32.79038 -117.30209 4596 ft 267 kts 304°
2026-05-06 23:53 32.80068 -117.32065 5567 ft 272 kts 306°
2026-05-06 23:54 32.81170 -117.33868 6572 ft 275 kts 310°
2026-05-06 23:54 32.82352 -117.35686 7503 ft 279 kts 311°
2026-05-06 23:54 32.83557 -117.37505 8445 ft 282 kts 311°
2026-05-06 23:54 32.84778 -117.39352 9377 ft 286 kts 311°
2026-05-06 23:55 32.86015 -117.41237 9822 ft 291 kts 311°
2026-05-06 23:55 32.87255 -117.43142 9972 ft 291 kts 311°
2026-05-06 23:55 32.88484 -117.45046 10001 ft 290 kts 310°
2026-05-06 23:55 32.89711 -117.46958 10003 ft 290 kts 310°
2026-05-06 23:56 32.90932 -117.48865 9999 ft 289 kts 310°
2026-05-06 23:56 32.92150 -117.50767 9997 ft 289 kts 310°
2026-05-06 23:56 32.93368 -117.52666 9997 ft 289 kts 310°
2026-05-06 23:56 32.94605 -117.54589 9997 ft 289 kts 311°
2026-05-06 23:57 32.95825 -117.56485 10009 ft 289 kts 311°
2026-05-06 23:57 32.97049 -117.58388 9997 ft 288 kts 310°
2026-05-06 23:57 32.98264 -117.60282 9996 ft 288 kts 310°
2026-05-06 23:57 32.99482 -117.62184 10001 ft 288 kts 310°
2026-05-06 23:58 33.00701 -117.64088 10002 ft 289 kts 311°
2026-05-06 23:58 33.01918 -117.65988 9986 ft 290 kts 311°
2026-05-06 23:58 33.03143 -117.67904 9985 ft 290 kts 311°
2026-05-06 23:58 33.04368 -117.69824 9986 ft 291 kts 311°
2026-05-06 23:59 33.05580 -117.71723 9993 ft 291 kts 311°
2026-05-06 23:59 33.06915 -117.73510 9989 ft 288 kts 322°
2026-05-06 23:59 33.08446 -117.75045 10003 ft 287 kts 323°
2026-05-06 23:59 33.09975 -117.76589 9996 ft 288 kts 323°
2026-05-07 00:00 33.11496 -117.78136 9998 ft 288 kts 323°
2026-05-07 00:00 33.13018 -117.79686 10009 ft 288 kts 323°
2026-05-07 00:00 33.14541 -117.81239 9999 ft 288 kts 323°
2026-05-07 00:00 33.15567 -117.82288 10011 ft 288 kts 323°
2026-05-07 00:01 33.17579 -117.84346 9998 ft 288 kts 323°
2026-05-07 00:01 33.19186 -117.85741 10003 ft 284 kts 335°
2026-05-07 00:01 33.21005 -117.86591 9995 ft 279 kts 349°
2026-05-07 00:01 33.22907 -117.87065 10006 ft 279 kts 351°
2026-05-07 00:02 33.24809 -117.87533 9998 ft 279 kts 351°
2026-05-07 00:02 33.26710 -117.88004 9999 ft 279 kts 351°
2026-05-07 00:02 33.28608 -117.88478 10000 ft 279 kts 351°
2026-05-07 00:02 33.29868 -117.88794 10001 ft 279 kts 351°
2026-05-07 00:03 33.31770 -117.89268 10005 ft 279 kts 351°
2026-05-07 00:03 33.33671 -117.89741 10003 ft 279 kts 351°
2026-05-07 00:03 33.35548 -117.90341 10005 ft 282 kts 338°
2026-05-07 00:03 33.37112 -117.91799 10000 ft 291 kts 311°
2026-05-07 00:04 33.37941 -117.94019 10003 ft 300 kts 282°
2026-05-07 00:04 33.38011 -117.96525 9944 ft 302 kts 275°
2026-05-07 00:04 33.38446 -117.98922 9570 ft 292 kts 300°
2026-05-07 00:04 33.39669 -118.00784 9195 ft 281 kts 325°
2026-05-07 00:05 33.41263 -118.02125 8805 ft 279 kts 330°
2026-05-07 00:05 33.42868 -118.03362 8456 ft 277 kts 332°
2026-05-07 00:05 33.44606 -118.04291 8097 ft 273 kts 344°
2026-05-07 00:05 33.46410 -118.04969 7767 ft 271 kts 346°
2026-05-07 00:06 33.48221 -118.05613 7421 ft 270 kts 347°
2026-05-07 00:06 33.50044 -118.06115 7096 ft 268 kts 351°
2026-05-07 00:06 33.51868 -118.06544 6990 ft 268 kts 351°
2026-05-07 00:06 33.53713 -118.06963 7002 ft 270 kts 351°
2026-05-07 00:07 33.55562 -118.07377 6999 ft 272 kts 351°
2026-05-07 00:07 33.57420 -118.07793 6998 ft 271 kts 351°
2026-05-07 00:07 33.59284 -118.08163 6996 ft 271 kts 358°
2026-05-07 00:07 33.61148 -118.07967 6995 ft 269 kts 10°
2026-05-07 00:08 33.62994 -118.07585 6996 ft 269 kts 10°
2026-05-07 00:08 33.64845 -118.07260 7000 ft 268 kts
2026-05-07 00:08 33.66686 -118.07002 6997 ft 269 kts
2026-05-07 00:08 33.68502 -118.06687 6992 ft 267 kts 11°
2026-05-07 00:09 33.70397 -118.06281 6994 ft 268 kts 11°
2026-05-07 00:09 33.72232 -118.05883 6992 ft 266 kts 11°
2026-05-07 00:09 33.74049 -118.05490 6993 ft 266 kts 11°
2026-05-07 00:09 33.75886 -118.05223 6953 ft 267 kts
2026-05-07 00:10 33.77710 -118.05202 6947 ft 255 kts
2026-05-07 00:10 33.79433 -118.05215 6950 ft 240 kts
2026-05-07 00:10 33.81038 -118.05232 6873 ft 229 kts
2026-05-07 00:10 33.82622 -118.05253 6695 ft 222 kts
2026-05-07 00:11 33.84163 -118.05270 6411 ft 221 kts
2026-05-07 00:11 33.85696 -118.05281 6113 ft 220 kts
2026-05-07 00:11 33.87134 -118.05294 5818 ft 220 kts
2026-05-07 00:11 33.88657 -118.05292 5491 ft 221 kts
2026-05-07 00:12 33.90196 -118.05279 5190 ft 220 kts
2026-05-07 00:12 33.91722 -118.05256 4978 ft 218 kts
2026-05-07 00:12 33.93242 -118.05226 4975 ft 221 kts
2026-05-07 00:12 33.94709 -118.05197 4788 ft 221 kts
2026-05-07 00:13 33.96227 -118.05162 4463 ft 221 kts 359°
2026-05-07 00:13 33.97696 -118.05640 4150 ft 218 kts 324°
2026-05-07 00:13 33.98537 -118.07064 3844 ft 216 kts 282°
2026-05-07 00:13 33.98421 -118.08841 3648 ft 210 kts 258°
2026-05-07 00:14 33.98192 -118.10512 3522 ft 201 kts 264°
2026-05-07 00:14 33.98033 -118.12150 3375 ft 193 kts 266°
2026-05-07 00:14 33.97878 -118.13743 3171 ft 189 kts 265°
2026-05-07 00:14 33.97722 -118.15307 3034 ft 186 kts 265°
2026-05-07 00:15 33.97568 -118.16859 2989 ft 186 kts 264°
2026-05-07 00:15 33.97412 -118.18413 2996 ft 189 kts 264°
2026-05-07 00:15 33.97257 -118.19964 3000 ft 187 kts 264°
2026-05-07 00:15 33.97101 -118.21511 3001 ft 187 kts 264°
2026-05-07 00:16 33.96944 -118.23078 2905 ft 187 kts 263°
2026-05-07 00:16 33.96787 -118.24637 2675 ft 186 kts 263°
2026-05-07 00:16 33.96635 -118.26143 2431 ft 175 kts 263°
2026-05-07 00:16 33.96493 -118.27553 2213 ft 162 kts 263°
2026-05-07 00:17 33.96360 -118.28869 1997 ft 154 kts 262°
2026-05-07 00:17 33.96237 -118.30089 1805 ft 144 kts 261°
2026-05-07 00:17 33.96119 -118.31255 1627 ft 135 kts 262°
2026-05-07 00:17 33.96013 -118.32307 1463 ft 125 kts 261°
2026-05-07 00:18 33.95908 -118.33337 1286 ft 126 kts 262°
2026-05-07 00:18 33.95802 -118.34378 1122 ft 124 kts 264°
2026-05-07 00:18 33.95695 -118.35432 938 ft 125 kts 261°
2026-05-07 00:18 33.95590 -118.36456 780 ft 127 kts 261°
2026-05-07 00:19 33.95483 -118.37512 606 ft 127 kts 262°
2026-05-07 00:19 33.95374 -118.38552 432 ft 125 kts 262°
2026-05-07 00:19 33.95271 -118.39574 242 ft 122 kts 261°
2026-05-07 00:19 33.95173 -118.40596 117 ft 120 kts 261°
2026-05-07 00:20 33.95083 -118.41416 108 ft 75 kts 263°
2026-05-07 00:20 33.95041 -118.41805 109 ft 26 kts 262°
2026-05-07 00:20 33.95014 -118.42021 107 ft 26 kts 261°
2026-05-07 00:20 33.94939 -118.42196 105 ft 12 kts 226°
2026-05-07 00:21 33.94877 -118.42261 104 ft 0 kts 212°
2026-05-07 00:21 33.94872 -118.42264 105 ft 2 kts 212°
2026-05-07 00:21 33.94867 -118.42269 105 ft 0 kts 212°
2026-05-07 00:21 33.94860 -118.42273 105 ft 4 kts 210°
2026-05-07 00:22 33.94789 -118.42282 106 ft 18 kts 178°
2026-05-07 00:22 33.94731 -118.42279 101 ft 0 kts 177°
2026-05-07 00:23 33.94710 -118.42276 100 ft 10 kts 173°
2026-05-07 00:24 33.94627 -118.42252 97 ft 15 kts 150°
2026-05-07 00:24 33.94620 -118.42135 96 ft 18 kts 84°
2026-05-07 00:24 33.94629 -118.41992 96 ft 10 kts 86°
2026-05-07 00:24 33.94633 -118.41914 96 ft 11 kts 87°
2026-05-07 00:25 33.94639 -118.41774 96 ft 13 kts 89°
2026-05-07 00:25 33.94584 -118.41707 95 ft 13 kts 156°
2026-05-07 00:25 33.94576 -118.41640 99 ft 8 kts 83°
2026-05-07 00:25 33.94577 -118.41625 95 ft 0 kts 83°